• In Uzbekistan
  • List of Countries
  • For 7 days
  • Water Temperature
  • Satellite Maps
  • Weather Map
  • Weather Widgets
  • user-avatar
    Login

    Hourly Weather Yeghegnadzor

    Today, 19 July, Friday

    Time Temperature Precipitation Wind Pressure Humidity
    00:00 +23°C° 0 mm 2 mps 650 mmHg 49%
    01:00 +23°C° 0 mm 2 mps 650 mmHg 49%
    02:00 +21°C° 0 mm 2 mps 650 mmHg 49%
    03:00 +21°C° 0 mm 1 mps 650 mmHg 49%
    04:00 +22°C° 0 mm 1 mps 650 mmHg 48%
    05:00 +23°C° 0 mm 1 mps 651 mmHg 47%
    06:00 +24°C° 0 mm 1 mps 651 mmHg 46%
    07:00 +26°C° 0 mm 1 mps 652 mmHg 40%
    08:00 +28°C° 0 mm 1 mps 653 mmHg 34%
    09:00 +31°C° 0 mm 1 mps 653 mmHg 29%
    10:00 +32°C° 0 mm 2 mps 653 mmHg 26%
    11:00 +34°C° 0 mm 3 mps 653 mmHg 23%
    12:00 +35°C° 0 mm 3 mps 654 mmHg 21%
    13:00 +35°C° 0 mm 3 mps 653 mmHg 20%
    14:00 +36°C° 0 mm 4 mps 653 mmHg 20%
    15:00 +36°C° 0 mm 4 mps 653 mmHg 19%
    16:00 +35°C° 0 mm 3 mps 653 mmHg 25%
    17:00 +34°C° 0 mm 3 mps 653 mmHg 31%
    18:00 +32°C° 0 mm 2 mps 653 mmHg 37%
    19:00 +30°C° 0 mm 3 mps 652 mmHg 48%
    20:00 +27°C° 0 mm 3 mps 652 mmHg 60%
    21:00 +23°C° 0 mm 4 mps 652 mmHg 72%
    22:00 +24°C° 0 mm 3 mps 652 mmHg 72%
    23:00 +22°C° 0 mm 3 mps 653 mmHg 72%

    Tomorrow, 20 July, Saturday

    Time Temperature Precipitation Wind Pressure Humidity
    00:00 +21°C° 0 mm 3 mps 653 mmHg 72%
    01:00 +21°C° 0 mm 2 mps 653 mmHg 71%
    02:00 +20°C° 0 mm 2 mps 653 mmHg 71%
    03:00 +20°C° 0 mm 2 mps 653 mmHg 70%
    04:00 +21°C° 0 mm 2 mps 653 mmHg 67%
    05:00 +21°C° 0 mm 2 mps 654 mmHg 65%
    06:00 +23°C° 0 mm 2 mps 654 mmHg 62%
    07:00 +25°C° 0 mm 2 mps 655 mmHg 56%
    08:00 +27°C° 0 mm 2 mps 656 mmHg 49%
    09:00 +29°C° 0 mm 2 mps 656 mmHg 42%
    10:00 +31°C° 0 mm 2 mps 657 mmHg 38%
    11:00 +32°C° 0 mm 2 mps 657 mmHg 35%
    12:00 +34°C° 0 mm 2 mps 657 mmHg 32%
    13:00 +35°C° 0 mm 3 mps 657 mmHg 31%
    14:00 +35°C° 0 mm 3 mps 657 mmHg 30%
    15:00 +36°C° 0 mm 3 mps 656 mmHg 29%
    16:00 +35°C° 0 mm 3 mps 656 mmHg 34%
    17:00 +34°C° 0 mm 4 mps 656 mmHg 39%
    18:00 +33°C° 0 mm 4 mps 656 mmHg 44%
    19:00 +29°C° 0 mm 4 mps 656 mmHg 50%
    20:00 +27°C° 0 mm 3 mps 656 mmHg 56%
    21:00 +25°C° 0 mm 3 mps 655 mmHg 61%
    22:00 +24°C° 0 mm 3 mps 656 mmHg 60%
    23:00 +24°C° 0 mm 3 mps 656 mmHg 59%

    Day after tomorrow, 21 July, Sunday

    Time Temperature Precipitation Wind Pressure Humidity
    00:00 +23°C° 0 mm 2 mps 656 mmHg 57%
    01:00 +23°C° 0 mm 2 mps 656 mmHg 58%
    02:00 +23°C° 0 mm 2 mps 656 mmHg 58%
    03:00 +21°C° 0 mm 2 mps 656 mmHg 58%
    04:00 +23°C° 0 mm 2 mps 656 mmHg 56%
    05:00 +24°C° 0 mm 2 mps 656 mmHg 53%
    06:00 +25°C° 0 mm 2 mps 657 mmHg 51%
    07:00 +27°C° 0 mm 2 mps 657 mmHg 45%
    08:00 +29°C° 0 mm 2 mps 658 mmHg 39%
    09:00 +31°C° 0 mm 2 mps 658 mmHg 33%
    10:00 +34°C° 0 mm 2 mps 658 mmHg 30%
    11:00 +35°C° 0 mm 3 mps 658 mmHg 28%
    12:00 +37°C° 0 mm 3 mps 658 mmHg 25%
    13:00 +37°C° 0 mm 4 mps 658 mmHg 24%
    14:00 +38°C° 0 mm 4 mps 657 mmHg 22%
    15:00 +38°C° 0 mm 4 mps 657 mmHg 21%
    16:00 +37°C° 0 mm 3 mps 656 mmHg 25%
    17:00 +37°C° 0 mm 3 mps 656 mmHg 30%
    18:00 +36°C° 0 mm 2 mps 656 mmHg 34%
    19:00 +32°C° 0 mm 2 mps 656 mmHg 39%
    20:00 +30°C° 0 mm 2 mps 655 mmHg 43%
    21:00 +27°C° 0 mm 3 mps 655 mmHg 48%
    22:00 +27°C° 0 mm 2 mps 655 mmHg 48%
    23:00 +26°C° 0 mm 2 mps 655 mmHg 47%

    22 July, Monday

    Time Temperature Precipitation Wind Pressure Humidity
    00:00 +25°C° 0 mm 2 mps 654 mmHg 47%
    01:00 +25°C° 0 mm 2 mps 654 mmHg 46%
    02:00 +25°C° 0 mm 2 mps 654 mmHg 46%
    03:00 +24°C° 0 mm 1 mps 653 mmHg 46%
    04:00 +25°C° 0 mm 1 mps 654 mmHg 45%
    05:00 +26°C° 0 mm 1 mps 654 mmHg 45%
    06:00 +27°C° 0 mm 1 mps 654 mmHg 44%
    07:00 +29°C° 0 mm 1 mps 655 mmHg 38%
    08:00 +31°C° 0 mm 2 mps 655 mmHg 33%
    09:00 +35°C° 0 mm 2 mps 656 mmHg 27%
    10:00 +36°C° 0 mm 3 mps 656 mmHg 25%
    11:00 +37°C° 0 mm 3 mps 655 mmHg 23%
    12:00 +40°C° 0 mm 4 mps 655 mmHg 21%
    13:00 +40°C° 0 mm 5 mps 655 mmHg 19%
    14:00 +41°C° 0 mm 5 mps 654 mmHg 18%
    15:00 +41°C° 0 mm 6 mps 654 mmHg 16%
    16:00 +40°C° 0.1 mm 5 mps 654 mmHg 21%
    17:00 +38°C° 0.1 mm 4 mps 653 mmHg 25%
    18:00 +37°C° 0.1 mm 2 mps 653 mmHg 30%
    19:00 +34°C° 0 mm 3 mps 652 mmHg 36%
    20:00 +31°C° 0 mm 3 mps 652 mmHg 42%
    21:00 +28°C° 0 mm 3 mps 652 mmHg 49%
    22:00 +27°C° 0 mm 3 mps 652 mmHg 51%
    23:00 +26°C° 0 mm 2 mps 651 mmHg 53%

    23 July, Tuesday

    Time Temperature Precipitation Wind Pressure Humidity
    00:00 +25°C° 0 mm 2 mps 651 mmHg 55%
    01:00 +24°C° 0 mm 2 mps 651 mmHg 56%
    02:00 +24°C° 0 mm 2 mps 651 mmHg 57%
    03:00 +23°C° 0 mm 2 mps 651 mmHg 58%
    04:00 +24°C° 0 mm 2 mps 651 mmHg 57%
    05:00 +25°C° 0 mm 1 mps 651 mmHg 56%
    06:00 +25°C° 0 mm 1 mps 652 mmHg 56%
    07:00 +27°C° 0 mm 1 mps 652 mmHg 50%
    08:00 +29°C° 0 mm 1 mps 652 mmHg 44%
    09:00 +31°C° 0 mm 2 mps 653 mmHg 38%
    10:00 +32°C° 0 mm 2 mps 653 mmHg 35%
    11:00 +34°C° 0 mm 3 mps 653 mmHg 32%
    12:00 +36°C° 0 mm 3 mps 653 mmHg 29%
    13:00 +36°C° 0 mm 3 mps 652 mmHg 27%
    14:00 +36°C° 0 mm 3 mps 652 mmHg 26%
    15:00 +37°C° 0 mm 3 mps 652 mmHg 24%
    16:00 +36°C° 0.1 mm 3 mps 651 mmHg 29%
    17:00 +35°C° 0.1 mm 3 mps 651 mmHg 34%
    18:00 +34°C° 0.1 mm 3 mps 651 mmHg 39%
    19:00 +30°C° 0 mm 3 mps 651 mmHg 49%
    20:00 +27°C° 0 mm 3 mps 651 mmHg 59%
    21:00 +25°C° 0 mm 3 mps 650 mmHg 68%
    22:00 +24°C° 0 mm 3 mps 650 mmHg 69%
    23:00 +24°C° 0 mm 2 mps 650 mmHg 70%

    24 July, Wednesday

    Time Temperature Precipitation Wind Pressure Humidity
    00:00 +23°C° 0 mm 2 mps 650 mmHg 71%
    01:00 +23°C° 0 mm 2 mps 650 mmHg 70%
    02:00 +21°C° 0 mm 2 mps 650 mmHg 69%
    03:00 +22°C° 0 mm 1 mps 650 mmHg 68%
    04:00 +23°C° 0 mm 1 mps 650 mmHg 66%
    05:00 +24°C° 0 mm 1 mps 651 mmHg 63%
    06:00 +24°C° 0 mm 1 mps 651 mmHg 60%
    07:00 +26°C° 0 mm 1 mps 651 mmHg 54%
    08:00 +28°C° 0 mm 2 mps 652 mmHg 48%
    09:00 +30°C° 0 mm 2 mps 652 mmHg 43%
    10:00 +31°C° 0 mm 3 mps 652 mmHg 37%
    11:00 +34°C° 0 mm 3 mps 652 mmHg 31%
    12:00 +35°C° 0 mm 4 mps 652 mmHg 25%
    13:00 +36°C° 0 mm 4 mps 652 mmHg 23%
    14:00 +36°C° 0 mm 5 mps 651 mmHg 20%
    15:00 +37°C° 0 mm 5 mps 651 mmHg 18%
    16:00 +36°C° 0 mm 4 mps 651 mmHg 19%
    17:00 +36°C° 0 mm 4 mps 651 mmHg 19%
    18:00 +36°C° 0 mm 3 mps 651 mmHg 20%
    19:00 +31°C° 0 mm 3 mps 651 mmHg 31%
    20:00 +28°C° 0 mm 3 mps 650 mmHg 42%
    21:00 +25°C° 0 mm 3 mps 650 mmHg 53%
    22:00 +24°C° 0 mm 3 mps 650 mmHg 54%
    23:00 +24°C° 0 mm 2 mps 650 mmHg 54%
    Show more